{"data":{"norad_id":67220,"intl_designator":"2025-305B","name":"DISKSAT B","alt_names":[],"object_type":"PAYLOAD","status":"ACTIVE","operator":null,"country":"US","launch_date":"2025-12-18","launch_site_code":"WLPIS","launch_vehicle":null,"mission":null,"orbit_class":"UNKNOWN","rcs_meters":null,"size_class":null,"mass_kg":null,"dimensions":null,"purposes":[],"wikipedia_slug":null,"has_3d_model":false,"image_url":null,"decayed_at":null,"tle_current":{"epoch":"2026-05-25T04:32:19.733856Z","epoch_age_seconds":69028,"freshness":"FRESH","line1":"1 67220U 25305B   26145.18911729  .00001876  00000+0  13366-3 0  9991","line2":"2 67220  45.0025 205.5862 0003786  12.9831 347.1141 15.08559342 23841","mean_motion":15.08559342,"eccentricity":0.0003786,"inclination_deg":45.0025,"raan_deg":205.5862,"arg_perigee_deg":12.9831,"mean_anomaly_deg":347.1141,"bstar":0.00013366,"rev_number":2384,"period_min":95.455310235983,"perigee_km":537.98194683672,"apogee_km":543.22081553896,"semimajor_km":6918.7383811878,"source":"CELESTRAK","updated_at":"2026-05-25T13:38:06.819017Z"}}}